DELTA 1 DEB, 42632

Orbit data source: Space-Track

DELTA 1 DEB, 42632 is space debris in SSO originally from a launch on Thu, 12 Jun 1975 UTC launched from the Air Force Western Test Range (AFWTR). Debris objects in space refer to the collection of defunct objects orbiting the Earth. Examples of debris include non-operational satellites, rocket bodies, and fragments generated from explosions, collisions, or faulty payload assembly.

Loading next visibility...
Identifier
42632, 1975-052LR
Orbit
SSO
Country
Flag of USUS
Related business
Manufacturer
Unknown
Mission
Spacecraft
Bus & Motor
Unknown
Mass
Unknown
Launch date (UTC)
1975-06-12 (51 years ago)
Launch vehicle
Unknown
Launch site
Air Force Western Test Range (AFWTR)
Object type
Payload
Rocket body
Debris
Shape & HBR
Unknown shape, 0.1 m
Radar Cross Section
Medium (>0.1 m² and <1 m²)

Expand to show TLE details & history
Last TLE update: 3 days ago

TLE from 3 days ago
0 DELTA 1 DEB
1 42632U 75052LR  26170.64397865 -.00000057  00000-0 -86283-4 0  9995
2 42632  99.5807 234.9332 0399933  28.3872 333.8391 12.70111322540637
Epoch: 2026-06-19T15:27Z
TLE epoch observation values (Epoch: 2026-06-19T15:27:19.755Z)
Latitude
-0.00002°
Longitude
95.23089°
Altitude
1,108.126 km
Speed
7.427 km/s
True Right ascension
15h 39m 43s
True Declination
0° 00' 00"
Sunlit
Object was in full shadow at epoch
Visualization orbit readout
Latitude
Unknown
Longitude
Unknown
Altitude
Unknown
Speed
Unknown
Apparent Right ascension
Unknown
Apparent Declination
Unknown
Sunlit
N/A
Visualization observer readout
Local Sidereal Time
21:41:27
Azimuth
Unknown
Elevation
Unknown
Doppler factor
Unknown
Orbital elements
Apogee altitude
1,689.112 km
Perigee altitude
1,068.655 km
Semi-major axis
7,757.021 km
Eccentricity
0.03999
Inclination
99.5807°
RAAN
234.9332°
Arg. of periapsis
28.3872°
True anomaly
331.72428°
Mean anomaly
333.8391°
Eccentric anomaly
332.79138°
Mean motion
3.17688 °/min
Orbital period
113.32 mins
BSTAR
-0.000086283
Loading maneuver chart data...
Computing Atmospheric mass density...
Loading historical data...
Loading historical data...
Loading historical data...
Loading historical data...
Loading historical data...
Loading historical data...
Loading historical data...

Documentation

Showing up to 5 results
|